Regional Weather Roundup
Issued by NWS Midland/Odessa, TX

Skip options and go directly to product.
Home | Oldest Version | Previous Version | Current Version | All | Graphics & Text | Save Text | Print | Product List | Glossary On

Skip product version selection by date and time.   
396
ASUS44 KMAF 242010
RWRMAF
MIDLAND AREA WEATHER ROUNDUP
NATIONAL WEATHER SERVICE MIDLAND TX
300 PM CDT THU APR 24 2014

...IN SOUTHWEST TEXAS AND SOUTHEAST NEW MEXICO...

CITY           SKY/WX    TMP DP  RH WIND       PRES   REMARKS
ALPINE         SUNNY     79  19  10 NE9       30.12F
ANDREWS        FAIR      75  29  18 N13G21    30.02F
ARTESIA        SUNNY     72  25  17 E7        30.04F
BIG SPRING     SUNNY     80  29  15 NW17G25   30.00F
CARLSBAD       SUNNY     77  20  12 MISG      30.02F
DRYDEN           N/A     93  14   5 N17G23    29.92F
FORT STOCKTON  SUNNY     81  13   7 NW8G22    30.01F
GUAD PASS      SUNNY     76  14   9 W17G25    30.12F
HOBBS          SUNNY     72  27  18 NW10G16   30.05F
MARFA          SUNNY     79  19  11 W9G21     30.10F
MIDLAND AIRPK  SUNNY     78  26  14 NW7G21    30.00F
MIDLAND INTL   SUNNY     79  31  17 NE8G22    30.00F
ODESSA         SUNNY     78  27  15 MISG      30.01F
PECOS          SUNNY     80  27  14 N3        30.00F
PRESIDIO       FAIR      89  19   8 W14G23    29.96F
SEMINOLE       SUNNY     74  29  19 N10G17    30.04F
SNYDER         SUNNY     77  31  18 NW13G24   29.98S
WINK           SUNNY     79  26  14 VRB6      29.99F
$$
...OTHER STATIONS IN TEXAS...

CITY           SKY/WX    TMP DP  RH WIND       PRES   REMARKS
ABILENE        SUNNY     81  35  19 N21G30    29.92F
AMARILLO       SUNNY     70  17  13 NW10G25   30.00F
AUSTIN         MOSUNNY   82  66  58 S8        29.84F
BROWNSVILLE    PTSUNNY   86  69  56 S20G28    29.80S
CORPUS CHRISTI CLOUDY    83  69  62 SE15      29.81F
DALLAS FTW     MOSUNNY   82  52  35 NW24      29.82S
DEL RIO        SUNNY     96  25   8 N8G25     29.82F
EL PASO        MOSUNNY   77  12   8 SE5       30.04F
HOUSTON INT    CLOUDY    82  64  54 SW8       29.85F
LUBBOCK        MOSUNNY   74  23  15 N14       30.01F
SAN ANGELO     CLOUDY    84  28  13 N15G23    29.93F
SAN ANTONIO    MOSUNNY   84  64  50 E8        29.84F
WACO           CLOUDY    87  50  27 N20G28    29.83R
WICHITA FALLS  NOT AVBL
$$
...OTHER LOCATIONS IN NEW MEXICO...

CITY           SKY/WX    TMP DP  RH WIND       PRES   REMARKS
ALAMAGORDO     SUNNY     73   5   7 N5        30.05F
ALBUQUERQUE    PTSUNNY   64  10  12 SW10      30.11F
CANNON AFB     SUNNY     67  24  19 NW10      30.05F
CLOVIS         SUNNY     68  25  19 N8        30.07F
HOLLOMAN AFB   SUNNY     75   4   6 N8        30.04F
ROSWELL        MOSUNNY   72  28  19 VRB3      30.04F
RUIDOSO        MOSUNNY   64   5   9 NW8G21    30.16F
SANTA FE       PTSUNNY   64   2   8 W18G25    30.10F
TRUTH OR CONSE SUNNY     71   8   8 S12       30.06F
TUCUMCARI      SUNNY     68  21  16 CALM      30.01F
$$

USA.gov is the U.S. government's official web portal to all federal, state and local government web resources and services.